Torna al catalogo

IABS R/B

AttivoGEO
NORAD 22916·ROCKET BODY·🇺🇸 United States

Lanciato Nov 28, 1993 da Cape Canaveral Space Force Station

Loading…

TLE

AggiornatoSource: Space-Track

Epoca: Sep 10, 2026, 23:25 UTC

1 22916U 93074B   26253.97603616 -.00000084  00000-0  00000-0 0  9992
2 22916  13.7285 341.3819 0057995 110.7052 249.9470  1.00003539 26765

Traccia IABS R/B in tempo reale con AllMySat

Download on the App Store